Lincoln, NE

3:13 AM CDT on September 22, 2017 (GMT -0500)
Lincoln Municipal

Weather History for KLNK - December, 2013

Change the Weather History Date:

Sunday, December 22, 2013

  Actual Average Record
Temperature  
Mean Temperature 15 °F 25 °F  
Max Temperature 24 °F 36 °F 70 °F (1933)
Min Temperature 6 °F 15 °F -27 °F (1983)
Degree Days  
Heating Degree Days 50 40  
Month to date heating degree days 964 823  
Since 1 July heating degree days 2261 2084  
Cooling Degree Days 0 0  
Month to date cooling degree days 0 0  
Year to date cooling degree days 1236 1173  
Moisture  
Dew Point 10 °F    
Average Humidity 68    
Maximum Humidity 84    
Minimum Humidity 52    
Precipitation  
Precipitation 0.01 in 0.03 in 1.34 in (1941)
Month to date precipitation 0.22 0.72  
Year to date precipitation 26.71 28.72  
Snow  
Snow 0.10 in 0.20 in - ()
Month to date snowfall 5.7 4.2  
Since 1 July snowfall 5.9 7.0  
Snow Depth T in    
Sea Level Pressure  
Sea Level Pressure 30.15 in    
Wind  
Wind Speed 13 mph (NNW)    
Max Wind Speed 24 mph    
Max Gust Speed 29 mph    
Visibility 9 miles    
Events Snow    
T = Trace of Precipitation, MM = Missing Value Source: NWS Daily Summary

Daily Weather History Graph

Daily Weather History Graph

Search for Another Location

Airport or City:

Trip Planner

Search our weather history database for the weather conditions in past years. The results will help you decide how hot, cold, wet, or windy it might be!

Date:

Astronomy

Dec. 22, 2013 Rise Set
Actual Time 7:48 AM CST 5:03 PM CST
Civil Twilight 7:17 AM CST 5:34 PM CST
Nautical Twilight 6:42 AM CST 6:08 PM CST
Astronomical Twilight 6:09 AM CST 6:42 PM CST
Moon 10:18 PM CST 10:43 AM CST
Length of Visible Light 10h 16m
Length of Day
9h 14m
Waning Gibbous, 76% of the Moon is Illuminated
Dec 22
Waning Gibbous
Dec 25
Last Quarter
Jan 1
New
Jan 7
First Quarter
Jan 15
Full

Hourly Weather History & Observations

Time (CST) Temp. Windchill Dew Point Humidity Pressure Visibility Wind Dir Wind Speed Gust Speed Precip Events Conditions
12:26 AM 21.9 °F 7.8 °F 18.0 °F 85% 29.88 in 2.5 mi North 17.3 mph - 0.00 in Snow Light Snow
12:41 AM 21.9 °F 7.3 °F 18.0 °F 85% 29.89 in 3.0 mi North 18.4 mph - 0.00 in Snow Light Snow
12:54 AM 21.0 °F 5.4 °F 17.1 °F 85% 29.94 in 3.0 mi North 20.7 mph - 0.00 in Snow Light Snow
1:25 AM 21.0 °F 5.7 °F 17.1 °F 85% 29.89 in 2.5 mi North 19.6 mph - 0.00 in Snow Light Snow
1:37 AM 21.0 °F 5.4 °F 17.1 °F 85% 29.90 in 4.0 mi North 20.7 mph - 0.00 in Snow Light Snow
1:50 AM 21.2 °F 6.0 °F 17.6 °F 86% 29.90 in 8.0 mi North 19.6 mph 27.6 mph 0.00 in   Overcast
1:54 AM 21.0 °F 6.6 °F 17.1 °F 85% 29.95 in 9.0 mi North 17.3 mph 25.3 mph 0.00 in   Overcast
2:54 AM 21.0 °F 5.4 °F 17.1 °F 85% 29.98 in 9.0 mi North 20.7 mph 26.5 mph N/A   Overcast
3:26 AM 19.9 °F 3.2 °F 16.0 °F 85% 29.95 in 8.0 mi NNW 23.0 mph - N/A   Overcast
3:54 AM 19.9 °F 3.9 °F 15.1 °F 81% 30.01 in 10.0 mi NNW 20.7 mph - N/A   Overcast
4:54 AM 19.9 °F 3.5 °F 14.0 °F 78% 30.02 in 10.0 mi North 21.9 mph 28.8 mph N/A   Overcast
5:14 AM 19.9 °F 3.9 °F 14.0 °F 78% 29.98 in 10.0 mi NNW 20.7 mph 27.6 mph N/A   Overcast
5:54 AM 19.0 °F 4.5 °F 12.0 °F 74% 30.05 in 10.0 mi NNW 16.1 mph - N/A   Overcast
6:54 AM 18.0 °F 4.8 °F 12.0 °F 78% 30.10 in 10.0 mi NNW 12.7 mph - N/A   Overcast
7:38 AM 17.1 °F 2.0 °F 10.9 °F 77% 30.07 in 10.0 mi NNW 16.1 mph - N/A   Overcast
7:54 AM 17.1 °F 3.0 °F 10.0 °F 74% 30.13 in 10.0 mi NW 13.8 mph - N/A   Overcast
8:54 AM 16.0 °F 0.1 °F 8.1 °F 71% 30.16 in 9.0 mi NNW 17.3 mph - N/A   Overcast
9:49 AM 15.8 °F 0.3 °F 6.8 °F 68% 30.13 in 10.0 mi NNW 16.1 mph - N/A   Scattered Clouds
9:54 AM 16.0 °F 0.6 °F 6.1 °F 65% 30.19 in 10.0 mi NNW 16.1 mph - N/A   Partly Cloudy
10:54 AM 18.0 °F 3.1 °F 7.0 °F 62% 30.22 in 9.0 mi NNW 16.1 mph - N/A   Clear
11:54 AM 21.0 °F 7.6 °F 8.1 °F 57% 30.22 in 10.0 mi NNW 15.0 mph - N/A   Clear
12:54 PM 21.9 °F 11.0 °F 8.1 °F 55% 30.22 in 10.0 mi NW 10.4 mph 18.4 mph N/A   Clear
1:54 PM 23.0 °F 11.1 °F 8.1 °F 53% 30.22 in 10.0 mi NW 12.7 mph - N/A   Clear
2:54 PM 23.0 °F 11.1 °F 8.1 °F 53% 30.23 in 10.0 mi NW 12.7 mph - N/A   Clear
3:54 PM 21.9 °F 11.0 °F 7.0 °F 53% 30.27 in 10.0 mi NW 10.4 mph - N/A   Clear
4:54 PM 19.9 °F 9.3 °F 7.0 °F 57% 30.28 in 10.0 mi NNW 9.2 mph - N/A   Clear
5:54 PM 18.0 °F 6.9 °F 6.1 °F 60% 30.32 in 10.0 mi NNW 9.2 mph - N/A   Clear
6:54 PM 10.9 °F -0.8 °F 3.0 °F 70% 30.35 in 10.0 mi North 8.1 mph - N/A   Clear
7:54 PM 8.1 °F -2.0 °F 1.9 °F 76% 30.40 in 10.0 mi North 5.8 mph - N/A   Clear
8:54 PM 7.0 °F -1.7 °F 1.0 °F 77% 30.41 in 10.0 mi North 4.6 mph - N/A   Clear
9:54 PM 8.1 °F -0.5 °F 1.0 °F 73% 30.44 in 10.0 mi North 4.6 mph - N/A   Mostly Cloudy
10:54 PM 10.9 °F -1.8 °F 3.0 °F 70% 30.45 in 10.0 mi North 9.2 mph - N/A   Mostly Cloudy
11:54 PM 10.9 °F -5.4 °F 1.9 °F 67% 30.47 in 10.0 mi North 15.0 mph - N/A   Overcast